リニア彗星

251P/LINEAR (2004)

English version
Home page
Updated on June 9, 2011

---------------------------------------------------------------------

・ プロフィール

符号 251P/2004 HC18
発見日 2004年4月17日
発見光度 19.1等
発見者 Lincoln Laboratory Near-Earth Asteroid Research project

・ 写真集

・ 軌道要素

Epoch 2004 June 4.0 TT = JDT 2453160.5
T 2004 June 18.67538 TT                                 MPC
q   1.7114955            (2000.0)            P               Q
n   0.15119008     Peri.   30.83905     -0.36254647     +0.89667529
a   3.4896927      Node   219.56097     -0.91556194     -0.39359508
e   0.5095569      Incl.   23.50702     -0.17408732     +0.20262366
P   6.52
From 318 observations 2004 Apr. 17-2011 May 5, mean residual 0".5.

・ 星図

・ 光度変化

        m1 = 10.5 + 5 logΔ + 25 log r(t - 65)

---------------------------------------------------------------------

軌道要素はM.P.E.C. 2011-J52に掲載されたものです。
星図は StellaNavigator Ver.2.0 for Windows (アストロアーツ 編著 / アスキー出版局刊) で作成したものです。
光度グラフはComet for Windowsで作成したものです。

---------------------------------------------------------------------

Copyright(C) Seiichi Yoshida (comet@aerith.net). All rights reserved.